TimeMST,TemperatureF,Dew PointF,Humidity,Sea Level PressureIn,VisibilityMPH,Wind Direction,Wind SpeedMPH,Gust SpeedMPH,PrecipitationIn,Events,Conditions,WindDirDegrees,DateUTC
12:53 AM,12.0,8.1,84,30.46,10.0,Calm,Calm,-,N/A,,Clear,0,2013-01-19 07:53:00
1:53 AM,10.9,7.0,84,30.47,10.0,ENE,4.6,-,N/A,,Clear,60,2013-01-19 08:53:00
2:53 AM,10.0,6.1,84,30.47,10.0,ENE,4.6,-,N/A,,Clear,70,2013-01-19 09:53:00
3:53 AM,8.1,5.0,87,30.49,10.0,NE,6.9,-,N/A,,Clear,50,2013-01-19 10:53:00
4:53 AM,8.1,3.9,83,30.49,10.0,ENE,4.6,-,N/A,,Clear,70,2013-01-19 11:53:00
5:53 AM,9.0,5.0,84,30.53,10.0,Calm,Calm,-,N/A,,Clear,0,2013-01-19 12:53:00
6:53 AM,10.0,6.1,84,30.56,10.0,East,5.8,-,N/A,,Clear,80,2013-01-19 13:53:00
7:53 AM,12.0,8.1,84,30.59,10.0,East,6.9,-,N/A,,Clear,90,2013-01-19 14:53:00
8:53 AM,17.1,10.9,77,30.61,10.0,ENE,5.8,-,N/A,,Clear,70,2013-01-19 15:53:00
9:53 AM,19.9,12.9,74,30.62,10.0,ESE,4.6,-,N/A,,Clear,110,2013-01-19 16:53:00
10:53 AM,25.0,15.1,66,30.59,10.0,East,5.8,-,N/A,,Clear,100,2013-01-19 17:53:00
11:53 AM,30.0,17.1,59,30.55,10.0,Calm,Calm,-,N/A,,Clear,0,2013-01-19 18:53:00
12:53 PM,34.0,17.1,50,30.51,10.0,Calm,Calm,-,N/A,,Clear,0,2013-01-19 19:53:00
1:53 PM,37.0,17.1,44,30.49,10.0,Calm,Calm,-,N/A,,Clear,0,2013-01-19 20:53:00
2:53 PM,39.0,16.0,39,30.47,10.0,Variable,3.5,-,N/A,,Clear,0,2013-01-19 21:53:00
3:53 PM,37.9,17.1,43,30.49,10.0,WNW,4.6,-,N/A,,Clear,290,2013-01-19 22:53:00
4:53 PM,36.0,16.0,44,30.49,10.0,WSW,4.6,-,N/A,,Clear,240,2013-01-19 23:53:00
5:53 PM,30.0,15.1,54,30.51,10.0,West,3.5,-,N/A,,Clear,270,2013-01-20 00:53:00
6:53 PM,26.1,15.1,63,30.54,10.0,Calm,Calm,-,N/A,,Clear,0,2013-01-20 01:53:00
7:53 PM,21.0,12.9,71,30.56,10.0,NNE,5.8,-,N/A,,Clear,30,2013-01-20 02:53:00
8:53 PM,19.0,12.9,77,30.56,10.0,NNE,4.6,-,N/A,,Clear,20,2013-01-20 03:53:00
9:53 PM,17.1,12.0,81,30.55,10.0,NNE,4.6,-,N/A,,Clear,20,2013-01-20 04:53:00
10:53 PM,15.1,10.9,84,30.55,10.0,NE,6.9,-,N/A,,Clear,40,2013-01-20 05:53:00
11:53 PM,12.9,9.0,84,30.53,10.0,NE,5.8,-,N/A,,Clear,50,2013-01-20 06:53:00